Current weather by "City, St" or "zip code"  
 

Current Conditions: Tulsa, Tulsa International Airport, OK

Mostly Cloudy


52.0 F

Last Updated on Apr 21 2021, 7:53 pm CDT
Humidity: 40%
Wind Speed: N 6.9 mph
Barometer 30.18 in
Dewpoint: 28.0 F
Visibility: 10.00 mi
Precip: --
Heat Index: NA
Wind Chill: 50 F
Current conditions at:

Tulsa, Tulsa International Airport, OK (KTUL)

Lat: 36.1975 Lon: 95.88639

Local Radar Image active severe weather and emergency alerts image image weather storm and storm spotter reports image weather observation monitoring service image
Local
Radar
Active
Alerts
Storm Reports Obs
Monitoring

Sign-up For Email & Text Message Weather Alert Notification Services



Advertise Here

Observation History for Tulsa, Tulsa International Airport, OK


Time Wind
(mph)
Vis
(mi)
Weather Precip (in) Temperature (F) Relative
Humidity
Wind
Chill
(F)
Heat
Index
(F)
Pressure
Air Dwpt altimeter
(in)
sea level
(mb)
Rmks
7:53 pm CDT N 6.9 10.00 Mostly Cloudy -- 52.0 28.0 40% 50 NA 30.18 1022.2
6:53 pm CDT NW 6.9 10.00 Mostly Cloudy -- 57.0 26.1 30% 56 NA 30.19 1022.3
5:53 pm CDT NW 6.9 10.00 Mostly Cloudy -- 60.0 26.1 27% 59 NA 30.19 1022.5
4:53 pm CDT NW 13.8 10.00 Mostly Cloudy -- 61.0 25.0 25% 59 NA 30.22 1023.2
3:53 pm CDT NW 10.4 G 19.6 10.00 Mostly Cloudy -- 61.0 24.1 24% 60 NA 30.24 1024.0
2:53 pm CDT W 13.8 G 21.9 10.00 Partly Cloudy -- 60.0 25.0 26% 58 NA 30.27 1025.2
1:53 pm CDT W 13.8 G 23.0 10.00 Partly Cloudy -- 58.0 25.0 28% 55 NA 30.30 1026.2
12:53 pm CDT NW 11.5 10.00 Partly Cloudy -- 57.0 26.1 30% 54 NA 30.32 1027.0
11:53 am CDT NW 13.8 G 20.7 10.00 Partly Cloudy -- 55.0 26.1 33% 51 NA 30.35 1027.8
10:53 am CDT N 5.8 10.00 Partly Cloudy -- 53.0 30.9 43% 51 NA 30.35 1027.9
9:53 am CDT NW 8.1 10.00 Partly Cloudy -- 49.0 33.1 55% 46 NA 30.34 1027.6
8:53 am CDT NW 8.1 10.00 A Few Clouds -- 44.0 32.0 63% 39 NA 30.34 1027.5
7:53 am CDT NW 3.5 10.00 A Few Clouds -- 39.0 28.9 67% NA NA 30.33 1027.3
6:53 am CDT W 5.8 10.00 Partly Cloudy -- 34.0 27.0 76% 29 NA 30.32 1027.1
5:53 am CDT W 3.5 10.00 A Few Clouds -- 34.0 28.0 79% NA NA 30.30 1026.4
4:53 am CDT S 4.6 10.00 Fair -- 35.0 28.0 76% 31 NA 30.30 1026.2
3:53 am CDT S 5.8 10.00 Fair -- 34.0 28.9 82% 29 NA 30.29 1025.9
2:53 am CDT S 4.6 10.00 Fair -- 34.0 28.9 82% 30 NA 30.29 1025.9
1:53 am CDT S 3.5 10.00 Fair -- 34.0 28.9 82% NA NA 30.29 1026.1
12:53 am CDT N 0.0 10.00 Fair -- 35.0 30.0 82% NA NA 30.30 1026.4
11:53 pm CDT N 0.0 10.00 Fair -- 36.0 30.0 79% NA NA 30.31 1026.6
10:53 pm CDT SW 3.5 10.00 Fair -- 37.0 28.9 73% NA NA 30.30 1026.5
9:53 pm CDT W 3.5 10.00 Fair -- 42.0 28.0 58% NA NA 30.29 1025.8
8:53 pm CDT 3.5 10.00 Fair -- 44.0 25.0 47% NA NA 30.25 1024.7

Regional Weather Observation


Bartlesville, Bartlesville Municipal Airport, OK (KBVO)

Partly Cloudy
55.0 F

Tulsa - Jones Jr. Airport, OK (KRVS)

Fair
55.0 F

Tulsa, Tulsa International Airport, OK (KTUL)

Mostly Cloudy
52.0 F

Claremore, Claremore Regional Airport, OK (KGCM)

Fair
52.0 F

Mid-America Industrial Airport, OK (KH71)

Fair
52.0 F

Cushing, Cushing Municipal Airport, OK (KCUH)

Fair
51.0 F

Advertise Here


Advertise Here